Location: Castellare
(42.4669°N, 9.4728°E)
Time: 09:41:16
(UTC+00:00)

PAYLOAD B - Pass Details

Date: 17 February 2020
Orbit: 848 x 872 km, 99.1° (Epoch: 09 April)

Event Time Altitude Azimuth Distance (km) Brightness Sun altitude
Rises 05:28:22 0° 9° (N) 3,464 7.4 -9.6°
Reaches altitude 10° 05:30:48 10° 5° (N) 2,520 6.6 -9.2°
Maximum altitude 05:36:12 52° 290° (WNW) 1,066 4.4 -8.2°
Drops below altitude 10° 05:41:33 10° 216° (SW) 2,489 6.4 -7.2°
Sets 05:43:57 0° 211° (SSW) 3,418 7.1 -6.8°
